Voltar ao catálogo

STARLINK-34426

AtivoComunicaçõesVLEO
NORAD 64345·PAYLOAD·🇺🇸 United States

Lançado Jun 13, 2025 de Vandenberg Space Force Base

Loading…

Próximas Passagens (próximas 24 horas)

TLE

AtualizadoSource: CelesTrak SupGP

Época: Sep 14, 2026, 23:07 UTC

1 64345C 25126B   26257.96368056  .00068479  00000+0  23212-2 0  2575
2 64345  69.9999 275.6749 0003412 265.2929  43.5673 15.30384711    12

Acompanhe STARLINK-34426 em tempo real com AllMySat

Download on the App Store